Location: Unspecified
(54.1780°N, 0.0000°E)
Time: 00:39:28
(UTC+00:00)

Vanguard 2 - Pass Details

Date: 19 June 2019
Orbit: 553 x 2938 km, 32.9° (Epoch: 18 August)

Event Time Altitude Azimuth Distance (km) Brightness Sun altitude
Rises 09:08:09 0° 205° (SSW) 3,675 11.0 45.5°
Reaches altitude 10° 09:12:05 10° 180° (S) 3,135 11.1 46.0°
Maximum altitude 09:15:44 14° 152° (SSE) 3,226 11.5 46.5°
Drops below altitude 10° 09:20:11 10° 126° (SE) 3,973 12.2 47.1°
Sets 09:26:34 0° 105° (ESE) 5,565 12.6 47.9°
